Abrixas rocket - Orbit

View from above orbital plane
View from above orbital plane
View from above satellite
View from above satellite

Ground track
Ground track

The orbit data is extracted from the following two-line orbital elements,

1 25723U 99022C   13168.20399536  .00002094  00000-0  96973-4 0  4120
2 25723 048.4175 229.2853 0021461 325.8579 077.6279 15.24393393781370
Epoch (UTC): 17 June 2013 04:53:45
Eccentricity: 0.0021461
inclination: 48.4175°
perigee height: 478 km
apogee height: 507 km
right ascension of ascending node: 229.2853°
argument of perigee: 325.8579°
revolutions per day: 15.24393393
mean anomaly at epoch: 77.6279°
orbit number at epoch: 78137

The dashed part of the orbit path shows where the satellite is in the earth's shadow,  

Developed and maintained by Chris Peat, Heavens-Above GmbH. Please read the updated FAQ before sending e-mail. Imprint. DLR